This is the latest recevied weather packets stored in our database for station/object DB0SMU-12. If no packets are shown the sender has not sent any weather packets the latest 1 day(s).
| Time | Temp. | Humidity | Pressure | Rain* | Wind** | Luminosity | Snow |
|---|---|---|---|---|---|---|---|
| 1778014477 | 13.33° C | 73% | 1010.4 hPa | 0 mm | 4.02 m/s, 235° | - | - |
| 1778014296 | 13.33° C | 72% | 1010.6 hPa | 0 mm | 4.47 m/s, 227° | - | - |
| 1778014115 | 13.33° C | 70% | 1010.5 hPa | 0 mm | 4.47 m/s, 234° | - | - |
| 1778013933 | 13.33° C | 70% | 1010.6 hPa | 0 mm | 4.92 m/s, 237° | - | - |
| 1778013752 | 13.33° C | 70% | 1010.6 hPa | 0 mm | 4.92 m/s, 236° | - | - |
| 1778013571 | 13.33° C | 70% | 1010.6 hPa | 0 mm | 4.47 m/s, 247° | - | - |
| 1778013390 | 13.89° C | 70% | 1010.5 hPa | 0 mm | 4.92 m/s, 249° | - | - |
| 1778013209 | 13.89° C | 70% | 1010.5 hPa | 0 mm | 5.36 m/s, 255° | - | - |
| 1778013028 | 13.89° C | 70% | 1010.5 hPa | 0 mm | 6.71 m/s, 243° | - | - |
| 1778012848 | 13.89° C | 71% | 1010.6 hPa | 0 mm | 5.36 m/s, 245° | - | - |
| 1778012486 | 13.89° C | 71% | 1010.5 hPa | 0 mm | 7.6 m/s, 238° | - | - |
| 1778012305 | 14.44° C | 72% | 1010.7 hPa | 0 mm | 7.6 m/s, 234° | - | - |
| 1778012124 | 14.44° C | 73% | 1010.5 hPa | 0 mm | 6.26 m/s, 239° | - | - |
| 1778011943 | 14.44° C | 73% | 1010.5 hPa | 0 mm | 6.26 m/s, 233° | - | - |
| 1778011762 | 14.44° C | 74% | 1010.4 hPa | 0 mm | 7.15 m/s, 234° | - | - |
| 1778011581 | 14.44° C | 73% | 1010.4 hPa | 0 mm | 6.26 m/s, 230° | - | - |
| 1778011400 | 14.44° C | 73% | 1010.4 hPa | 0 mm | 5.81 m/s, 234° | - | - |
| 1778011219 | 14.44° C | 73% | 1010.3 hPa | 0 mm | 5.36 m/s, 244° | - | - |
| 1778011038 | 13.89° C | 73% | 1010.3 hPa | 0 mm | 5.36 m/s, 234° | - | - |
| 1778010858 | 13.89° C | 73% | 1010.2 hPa | 0 mm | 4.92 m/s, 234° | - | - |
| 1778010677 | 13.89° C | 73% | 1010.1 hPa | 0 mm | 4.92 m/s, 228° | - | - |
| 1778010496 | 13.89° C | 74% | 1010.1 hPa | 0 mm | 4.47 m/s, 227° | - | - |
| 1778010315 | 13.89° C | 74% | 1010.1 hPa | 0 mm | 5.36 m/s, 230° | - | - |
| 1778010134 | 13.89° C | 75% | 1009.9 hPa | 0 mm | 3.58 m/s, 225° | - | - |
| 1778009953 | 13.89° C | 75% | 1009.9 hPa | 0 mm | 4.02 m/s, 225° | - | - |
* Rain latest hour (hover to see other rain measurements)
** Current wind speed in m/s (hover to see current wind gust speed)